K0QMS Weather Reports


time (UTC)temp
C
wind
direction
speed
KPH
gust
KPH
rain 1hr
cm
rain 24hr
cm
rain mn
cm
humidity
%
barometer
mb
20260507222820 -17 0 0.0 0.0 0.00 0.00 0.00 100
20260507221818 30 22 0.0 0.0 0.00 0.00 0.00 13
20260507215919 29 22 3.2 3.2 0.00 0.00 0.00 13
20260507214920 28 22 6.4 6.4 0.00 0.00 0.00 14
20260507213919 28 67 1.6 1.6 0.00 0.00 0.00 14
20260507212920 28 22 3.2 3.2 0.00 0.00 0.00 14
20260507212017 29 22 8.0 8.0 0.00 0.00 0.00 13
20260507211033 -17 0 0.0 0.0 0.00 0.00 0.00 100
20260507210019 30 67 1.6 1.6 0.00 0.00 0.00 13
20260507205034 -17 0 0.0 0.0 0.00 0.00 0.00 100
20260507204018 -17 0 0.0 0.0 0.00 0.00 0.00 100
20260507203017 30 67 9.7 9.7 0.00 0.00 0.00 14
20260507202018 -17 0 0.0 0.0 0.00 0.00 0.00 100
20260507201017 -17 0 0.0 0.0 0.00 0.00 0.00 100
20260507200017 28 22 3.2 3.2 0.00 0.00 0.00 14
20260507195016 28 90 1.6 1.6 0.00 0.00 0.00 15
20260507194018 28 292 4.8 4.8 0.00 0.00 0.00 15
20260507193918 28 292 4.8 4.8 0.00 0.00 0.00 15
20260507192919 28 23 1.6 3.2 0.00 0.00 0.00 15
20260507192017 28 60 11.3 12.9 0.00 0.00 0.00 16
20260507191106 -17 0 0.0 0.0 0.00 0.00 0.00 100
20260507185107 29 314 1.6 4.8 0.00 0.00 0.00 16
20260507184109 28 45 0.0 0.0 0.00 0.00 0.00 16
20260507183109 28 67 8.0 12.9 0.00 0.00 0.00 18
20260507182206 27 73 6.4 11.3 0.00 0.00 0.00 17
20260507181209 27 45 6.4 6.4 0.00 0.00 0.00 18
20260507180208 27 34 6.4 9.7 0.00 0.00 0.00 19
20260507175307 27 75 3.2 8.0 0.00 0.00 0.00 20
20260507174308 27 67 9.7 9.7 0.00 0.00 0.00 21
20260507173308 26 56 0.0 1.6 0.00 0.00 0.00 22
20260507172407 26 225 0.0 1.6 0.00 0.00 0.00 22
20260507171409 25 112 0.0 0.0 0.00 0.00 0.00 24
20260507170409 25 284 0.0 3.2 0.00 0.00 0.00 25
20260507165408 25 270 0.0 1.6 0.00 0.00 0.00 24
20260507164506 25 6 1.6 4.8 0.00 0.00 0.00 25
20260507163509 25 270 0.0 1.6 0.00 0.00 0.00 27
20260507162510 23 292 1.6 4.8 0.00 0.00 0.00 26
20260507161509 23 195 0.0 1.6 0.00 0.00 0.00 28
20260507160608 23 157 3.2 6.4 0.00 0.00 0.00 29
20260507154609 22 166 3.2 3.2 0.00 0.00 0.00 30
20260507153707 22 157 0.0 0.0 0.00 0.00 0.00 31
20260507152708 21 168 1.6 3.2 0.00 0.00 0.00 30
20260507151806 20 165 1.6 3.2 0.00 0.00 0.00 32
20260507150809 20 193 1.6 3.2 0.00 0.00 0.00 33
20260507145806 19 212 4.8 6.4 0.00 0.00 0.00 35
20260507145708 19 200 4.8 6.4 0.00 0.00 0.00 35
20260507144709 18 180 1.6 3.2 0.00 0.00 0.00 37
20260507143709 17 247 0.0 0.0 0.00 0.00 0.00 38
20260507142808 17 214 4.8 6.4 0.00 0.00 0.00 40
20260507141809 16 187 6.4 8.0 0.00 0.00 0.00 45
20260507140807 15 189 1.6 4.8 0.00 0.00 0.00 48
20260507135906 13 188 1.6 3.2 0.00 0.00 0.00 49
20260507134909 12 202 3.2 3.2 0.00 0.00 0.00 53
20260507133909 11 180 1.6 1.6 0.00 0.00 0.00 55
20260507132908 10 157 3.2 4.8 0.00 0.00 0.00 57
20260507131008 8 202 0.0 0.0 0.00 0.00 0.00 62
20260507130007 8 180 1.6 3.2 0.00 0.00 0.00 63
20260507125011 8 195 0.0 0.0 0.00 0.00 0.00 61
20260507124108 8 202 0.0 0.0 0.00 0.00 0.00 59
20260507123207 9 202 0.0 1.6 0.00 0.00 0.00 57
20260507122209 9 202 0.0 1.6 0.00 0.00 0.00 58
20260507121306 8 198 1.6 3.2 0.00 0.00 0.00 59
20260507120308 9 157 1.6 1.6 0.00 0.00 0.00 60
20260507114307 9 202 0.0 0.0 0.00 0.00 0.00 59
20260507113308 9 292 0.0 0.0 0.00 0.00 0.00 60
20260507112311 9 292 0.0 0.0 0.00 0.00 0.00 59
20260507111407 10 292 0.0 0.0 0.00 0.00 0.00 56
20260507105410 11 292 0.0 0.0 0.00 0.00 0.00 48
20260507104409 11 292 0.0 1.6 0.00 0.00 0.00 48
20260507103409 11 292 0.0 1.6 0.00 0.00 0.00 48
20260507100507 11 292 0.0 0.0 0.00 0.00 0.00 47
20260507095507 11 292 0.0 0.0 0.00 0.00 0.00 47
20260507093608 11 292 0.0 0.0 0.00 0.00 0.00 46
20260507092609 11 292 0.0 0.0 0.00 0.00 0.00 46
20260507090607 11 315 0.0 0.0 0.00 0.00 0.00 47
20260507085706 11 315 0.0 0.0 0.00 0.00 0.00 47
20260507085608 11 315 0.0 0.0 0.00 0.00 0.00 47
20260507084609 12 315 0.0 0.0 0.00 0.00 0.00 46
20260507083706 11 315 1.6 1.6 0.00 0.00 0.00 49
20260507082708 12 315 1.6 1.6 0.00 0.00 0.00 47
20260507081707 12 315 0.0 0.0 0.00 0.00 0.00 45
20260507075809 12 315 0.0 0.0 0.00 0.00 0.00 45
20260507074843 13 315 0.0 0.0 0.00 0.00 0.00 43
20260507073907 13 315 1.6 3.2 0.00 0.00 0.00 42
20260507072909 13 315 0.0 0.0 0.00 0.00 0.00 40
20260507072007 13 315 0.0 0.0 0.00 0.00 0.00 40
20260507071009 13 315 0.0 0.0 0.00 0.00 0.00 38
20260507070034 13 315 0.0 0.0 0.00 0.00 0.00 38
20260507065030 14 315 0.0 0.0 0.00 0.00 0.00 36
20260507064032 14 315 0.0 0.0 0.00 0.00 0.00 35
20260507063130 15 315 0.0 0.0 0.00 0.00 0.00 34
20260507062132 15 315 0.0 0.0 0.00 0.00 0.00 34
20260507061148 15 315 0.0 0.0 0.00 0.00 0.00 35
20260507060233 15 315 0.0 0.0 0.00 0.00 0.00 33
20260507055330 15 315 0.0 0.0 0.00 0.00 0.00 35
20260507053331 15 315 0.0 0.0 0.00 0.00 0.00 33
20260507052332 16 315 0.0 0.0 0.00 0.00 0.00 32
20260507051331 16 90 0.0 0.0 0.00 0.00 0.00 31
20260507050431 16 90 0.0 0.0 0.00 0.00 0.00 30
20260507045434 17 90 0.0 0.0 0.00 0.00 0.00 28
20260507044432 18 90 0.0 0.0 0.00 0.00 0.00 26
20260507042432 19 45 0.0 1.6 0.00 0.00 0.00 24
20260507041430 20 22 3.2 3.2 0.00 0.00 0.00 22
20260507035430 19 90 1.6 1.6 0.00 0.00 0.00 25
20260507034431 20 45 4.8 4.8 0.00 0.00 0.00 23
20260507033431 20 67 0.0 0.0 0.00 0.00 0.00 24
20260507032433 20 67 3.2 3.2 0.00 0.00 0.00 24
20260507031430 -17 0 0.0 0.0 0.00 0.00 0.00 100
20260507030430 20 22 1.6 1.6 0.00 0.00 0.00 22
20260507025430 21 22 3.2 3.2 0.00 0.00 0.00 22
20260507024429 -17 0 0.0 0.0 0.00 0.00 0.00 100
20260507023430 21 22 4.8 4.8 0.00 0.00 0.00 21
20260507022519 -17 0 0.0 0.0 0.00 0.00 0.00 100
20260507021518 -17 0 0.0 0.0 0.00 0.00 0.00 100
20260507020520 22 360 3.2 3.2 0.00 0.00 0.00 21
20260507015519 23 22 6.4 6.4 0.00 0.00 0.00 20
20260507014518 24 45 3.2 3.2 0.00 0.00 0.00 20
20260507012619 25 67 1.6 1.6 0.00 0.00 0.00 19
20260507011717 25 22 3.2 3.2 0.00 0.00 0.00 18
20260507010734 25 67 3.2 3.2 0.00 0.00 0.00 19
20260507005719 25 67 3.2 3.2 0.00 0.00 0.00 18
20260507004718 -17 0 0.0 0.0 0.00 0.00 0.00 100
20260507003717 -17 0 0.0 0.0 0.00 0.00 0.00 100
20260507002718 -17 0 0.0 0.0 0.00 0.00 0.00 100
20260507001718 -17 0 0.0 0.0 0.00 0.00 0.00 100
20260507000817 -17 0 0.0 0.0 0.00 0.00 0.00 100
20260506235819 -17 0 0.0 0.0 0.00 0.00 0.00 100
20260506234820 27 157 3.2 3.2 0.00 0.00 0.00 17
20260506233818 27 112 3.2 3.2 0.00 0.00 0.00 15
20260506232916 -17 0 0.0 0.0 0.00 0.00 0.00 100
20260506231918 27 112 4.8 4.8 0.00 0.00 0.00 17
20260506230017 -17 0 0.0 0.0 0.00 0.00 0.00 100
20260506225116 -17 0 0.0 0.0 0.00 0.00 0.00 100
20260506224118 -17 0 0.0 0.0 0.00 0.00 0.00 100